Location: Grand Canyon Star Party (South Rim)
(36.0641°N, 112.1172°W)
Time: 12:33:09
(UTC-07:00)

ISS - Visible Passes

Search period start: 19 November 2017 00:00
Search period end: 29 November 2017 00:00
Orbit: 402 x 407 km, 51.6° (Epoch: 20 November)

Date Brightness Start Highest point End Pass type
(mag) Time Alt. Az. Time Alt. Az. Time Alt. Az.
19 Nov -2.5 05:57:49 23° WSW 05:58:15 24° SW 06:00:55 10° S visible
20 Nov -1.5 05:08:12 19° SSE 05:08:12 19° SSE 05:09:15 10° SSE visible
23 Nov -1.2 19:04:34 10° S 19:05:01 12° S 19:05:01 12° S visible
24 Nov -1.5 18:14:18 10° SE 18:15:01 11° SE 18:15:20 10° ESE visible
24 Nov -0.4 19:47:52 10° WSW 19:48:02 11° WSW 19:48:02 11° WSW visible
25 Nov -3.4 18:55:33 10° SW 18:58:16 52° S 18:58:16 52° S visible
26 Nov -2.6 18:03:41 10° SSW 18:06:31 28° SE 18:08:24 16° E visible
26 Nov -0.8 19:40:11 10° W 19:41:04 15° W 19:41:04 15° W visible
27 Nov -3.1 18:47:20 10° WSW 18:50:29 46° NW 18:51:06 40° N visible
28 Nov -3.9 17:54:51 10° SW 17:58:06 82° SE 18:01:03 12° NE visible
28 Nov -0.7 19:33:09 10° WNW 19:33:43 12° NW 19:33:43 12° NW visible
